This is the latest recevied weather packets stored in our database for station/object KE0PRS. If no packets are shown the sender has not sent any weather packets the latest 10 day(s).
| Time | Temp. | Humidity | Pressure | Rain* | Wind** | Luminosity | Snow |
|---|---|---|---|---|---|---|---|
| 1777582472 | 13.33° C | 74% | 1019.4 hPa | 0 mm | - | 614 W/m² | - |
| 1777582173 | 13.33° C | 76% | 1019.1 hPa | 0 mm | - | 643 W/m² | - |
| 1777581872 | 13.33° C | 76% | 1019.1 hPa | 0 mm | - | 657 W/m² | - |
| 1777581566 | 12.78° C | 78% | 1019.3 hPa | 0 mm | - | 632 W/m² | - |
| 1777581262 | 12.78° C | 83% | 1019.5 hPa | 0 mm | - | 429 W/m² | - |
| 1777580957 | 12.22° C | 84% | 1019.6 hPa | 0 mm | - | 598 W/m² | - |
| 1777580651 | 12.22° C | 84% | 1019.7 hPa | 0 mm | - | 622 W/m² | - |
| 1777580346 | 12.22° C | 84% | 1019.8 hPa | 0 mm | - | 399 W/m² | - |
| 1777580043 | 12.78° C | 83% | 1020 hPa | 0 mm | - | 364 W/m² | - |
| 1777579739 | 12.78° C | 82% | 1019.9 hPa | 0 mm | - | 338 W/m² | - |
| 1777579437 | 13.33° C | 76% | 1020 hPa | 0 mm | - | 248 W/m² | - |
| 1777579133 | 13.33° C | 80% | 1020 hPa | 0 mm | - | 285 W/m² | - |
| 1777578832 | 12.78° C | 80% | 1019.9 hPa | 0 mm | - | 301 W/m² | - |
| 1777578529 | 12.78° C | 80% | 1020 hPa | 0 mm | - | 318 W/m² | - |
| 1777578223 | 12.78° C | 79% | 1019.8 hPa | 0 mm | - | 295 W/m² | - |
| 1777577919 | 12.78° C | 80% | 1020.1 hPa | 0 mm | - | 300 W/m² | - |
| 1777577615 | 12.78° C | 80% | 1020 hPa | 0 mm | - | 327 W/m² | - |
| 1777577313 | 12.78° C | 80% | 1020.1 hPa | 0 mm | - | 298 W/m² | - |
| 1777577008 | 12.78° C | 80% | 1020.2 hPa | 0 mm | - | 376 W/m² | - |
| 1777576706 | 12.78° C | 82% | 1020.2 hPa | 0 mm | - | 391 W/m² | - |
| 1777576404 | 12.78° C | 82% | 1020.2 hPa | 0 mm | - | 428 W/m² | - |
| 1777576101 | 12.78° C | 82% | 1020.2 hPa | 0 mm | - | 379 W/m² | - |
| 1777575797 | 12.78° C | 81% | 1020.3 hPa | 0 mm | - | 410 W/m² | - |
| 1777575494 | 12.78° C | 83% | 1020.6 hPa | 0 mm | - | 386 W/m² | - |
| 1777575189 | 12.78° C | 84% | 1020.4 hPa | 0 mm | - | 366 W/m² | - |
* Rain latest hour (hover to see other rain measurements)
** Current wind speed in m/s (hover to see current wind gust speed)